Tracking 33744 objects as of 13-Apr-2026
HD Live streaming from Space Station
objects crossing your sky now

STARLINK-36381

Track STARLINK-36381 now!
10-day predictions
STARLINK-36381 is classified as:


NORAD ID: 67952
Int'l Code: 2026-037W
Perigee: 489.3 km
Apogee: 491.1 km
Inclination: 43.0 °
Period: 94.3 minutes
Semi major axis: 6861 km
RCS: Unknown
Launch date: February 24, 2026
Source: United States (US)
Launch site: AIR FORCE EASTERN TEST RANGE (AFETR)
Your satellite tracking list
Your tracking list is empty




NASA's NSSDC Master Catalog

Two Line Element Set (TLE):
1 67952U 26037W   26102.40091412  .00017740  00000-0  65261-3 0  9991
2 67952  42.9999   0.5798 0001308 269.1949  90.8753 15.27580155  8496
Source of the keplerian elements: AFSPC